Weather Roundup
Issued by NWS Chicago, IL

Home | Current Version | Previous Version | Graphics & Text | Print | Product List | Glossary On
Versions: 1 2 3 4 5 6 7 8 9 10 11 12 13 14 15 16 17 18 19 20 21 22 23 24 25 26 27 28 29 30 31 32 33 34 35 36 37 38 39 40 41 42 43 44 45 46 47 48 49 50
000
NZUS59 KLOT 022310
HRRLOT

CHICAGO AREA WEATHER ROUNDUP
NATIONAL WEATHER SERVICE CHICAGO/ROMEOVILLE IL
500 PM CST MON MAR 02 2015

NOTE: "FAIR" INDICATES FEW OR NO CLOUDS BELOW 12,000 FEET WITH NO
SIGNIFICANT WEATHER AND/OR OBSTRUCTIONS TO VISIBILITY.

* THESE STATIONS ARE NOT UNDER NWS QUALITY CONTROL. THEY ALSO MAY NOT
  REPORT WEATHER SUCH AS PRECIPITATION OR FOG.

ILZ005-006-012>014-019>023-030000-
NORTHEAST ILLINOIS

CITY           SKY/WX    TMP DP  RH WIND       PRES   REMARKS
OHARE          CLOUDY    28  17  63 E8        30.39S WCI  20
MIDWAY         CLOUDY    30  19  63 E8        30.41S WCI  22
AURORA         PTCLDY    27  13  55 S8        30.41F WCI  19
LANSING*       PTCLDY    29  16  56 S6        30.42S WCI  23
JOLIET*        PTCLDY    28  15  59 SW6       30.42S WCI  21
WAUKEGAN       PTCLDY    25  16  68 SE7       30.39F WCI  17
DUPAGE AIRPORT PTCLDY    28  14  55 SW8       30.39F WCI  20
WHEELING       PTCLDY    27  16  63 SE7       30.41F WCI  19
KANKAKEE*      CLOUDY    26  17  69 S8        30.43S WCI  18
MORRIS*        PTCLDY    26  17  68 S8        30.41F WCI  17
LEWIS AIRPORT* MOCLDY    28  16  62 S8        30.41F WCI  20
NORTHERLY IS     N/A     26  19  75 E3          N/A
$$

WIZ051-052-058>065-066-070>072-030000-
SOUTHEAST WISCONSIN

CITY           SKY/WX    TMP DP  RH WIND       PRES   REMARKS
MILWAUKEE      MOCLDY    26   9  48 S9        30.39F WCI  17
KENOSHA*       PTCLDY    25  14  63 SE7       30.39F WCI  17
RACINE*        PTCLDY    25  12  58 S8        30.41F WCI  16
BURLINGTON     PTCLDY    25  10  54 SW7       30.38F WCI  17
WAUKESHA       MOCLDY    27   7  43 S3        30.38F
WEST BEND      MOCLDY    27   9  46 S3        30.36F
$$

INZ001>003-010>013-019-020-030000-
NORTHWEST INDIANA

CITY           SKY/WX    TMP DP  RH WIND       PRES   REMARKS
GARY*          CLOUDY    28  16  59 E7        30.42F WCI  21
MICHIGAN CITY* NOT AVBL
RENSSELAER*    NOT AVBL
VALPARAISO     PTCLDY    26  12  55 S5        30.41F WCI  20
$$

LMZ740>746-030000-
SOUTHERN LAKE MICHIGAN

STATION/POSITION TIME  SKY/WX   TEMP WIND        PRES    VSBY
                                AIR  DIR/SP/G
                 (UTC)          (F)  (DEG/KT/KT) (MB)    (MI)
HARRISON CRIB    2300            25  100/  9/ 10   N/A
BURNHAM HARBOR   2300            26  100/  4/  8   N/A
CALUMET HARBOR   2300            27   80/  5/  8 1028.5F
BURNS HARBOR     NOT AVBL
MICHIGAN CITY    2300            23   40/  6/  6   N/A
$$

ABBREVIATIONS USED IN REMARKS
   TC - TEMPERATURE IN CELSIUS
  WCI - WIND CHILL INDEX
   HX - HEAT INDEX
  VSB - VISIBILITY
$$



USA.gov is the U.S. government's official web portal to all federal, state and local government web resources and services.